N395T KFRG-KJNX

Flight info

Callsign N395T
Flight time N/A
Altitude 22000
Route WAVEY EMJAY Q167 ZJAAY Q97 SAWED GUILD
Aircraft PC12/L-SDFGRWY/S

Departure

Time 2026-04-30 01:41
Airport Republic Airport (KFRG)

Arrival

Time N/A
Airport Johnston Regional Airport (KJNX)
Time Latitude Longitude Altitude Speed Heading
2026-04-30 01:02 40.72135 -73.41624 76 ft 0 kts
2026-04-30 01:34 40.72143 -73.41628 67 ft 4 kts 308°
2026-04-30 01:35 40.72154 -73.41652 63 ft 2 kts 360°
2026-04-30 01:35 40.72155 -73.41652 63 ft 0 kts 360°
2026-04-30 01:35 40.72159 -73.41652 64 ft 4 kts 360°
2026-04-30 01:36 40.72186 -73.41601 67 ft 11 kts 90°
2026-04-30 01:36 40.72241 -73.41537 66 ft 14 kts
2026-04-30 01:36 40.72264 -73.41565 66 ft 4 kts 129°
2026-04-30 01:36 40.72269 -73.41542 63 ft 8 kts 26°
2026-04-30 01:37 40.72336 -73.41538 70 ft 10 kts
2026-04-30 01:37 40.72406 -73.41539 73 ft 11 kts 358°
2026-04-30 01:37 40.72493 -73.41541 75 ft 15 kts 359°
2026-04-30 01:37 40.72613 -73.41542 76 ft 18 kts 359°
2026-04-30 01:38 40.72733 -73.41544 81 ft 17 kts 359°
2026-04-30 01:38 40.72836 -73.41546 81 ft 15 kts 357°
2026-04-30 01:38 40.72932 -73.41618 73 ft 17 kts 313°
2026-04-30 01:38 40.73013 -73.41734 82 ft 17 kts 312°
2026-04-30 01:39 40.73094 -73.41852 79 ft 17 kts 312°
2026-04-30 01:39 40.73171 -73.41964 85 ft 16 kts 312°
2026-04-30 01:39 40.73255 -73.42086 85 ft 19 kts 312°
2026-04-30 01:39 40.73336 -73.42202 90 ft 15 kts 312°
2026-04-30 01:40 40.73395 -73.42245 90 ft 10 kts 38°
2026-04-30 01:40 40.73443 -73.42188 91 ft 6 kts 44°
2026-04-30 01:40 40.73451 -73.42154 88 ft 6 kts 127°
2026-04-30 01:40 40.73416 -73.42105 86 ft 9 kts 131°
2026-04-30 01:41 40.73327 -73.41977 84 ft 41 kts 132°
2026-04-30 01:41 40.72999 -73.41504 89 ft 94 kts 132°
2026-04-30 01:41 40.72534 -73.40811 395 ft 106 kts 130°
2026-04-30 01:41 40.71936 -73.40173 848 ft 119 kts 149°
2026-04-30 01:42 40.71155 -73.39701 1456 ft 125 kts 160°
2026-04-30 01:42 40.70265 -73.39655 2024 ft 135 kts 193°
2026-04-30 01:42 40.69433 -73.40222 2651 ft 141 kts 207°
2026-04-30 01:42 40.68521 -73.40899 3047 ft 159 kts 207°
2026-04-30 01:43 40.67515 -73.41635 3454 ft 171 kts 207°
2026-04-30 01:43 40.66428 -73.42307 3851 ft 177 kts 190°
2026-04-30 01:43 40.65195 -73.42233 4264 ft 178 kts 174°
2026-04-30 01:43 40.63961 -73.42025 4678 ft 177 kts 175°
2026-04-30 01:44 40.62757 -73.41907 5144 ft 171 kts 178°
2026-04-30 01:44 40.61580 -73.41834 5617 ft 166 kts 179°
2026-04-30 01:44 40.60433 -73.41765 6093 ft 164 kts 179°
2026-04-30 01:44 40.59309 -73.41695 6599 ft 159 kts 179°
2026-04-30 01:45 40.58227 -73.41626 7124 ft 153 kts 179°
2026-04-30 01:45 40.57145 -73.41558 7459 ft 161 kts 179°
2026-04-30 01:45 40.56015 -73.41488 7724 ft 169 kts 179°
2026-04-30 01:45 40.54812 -73.41413 7979 ft 177 kts 179°
2026-04-30 01:46 40.53564 -73.41334 8233 ft 182 kts 179°
2026-04-30 01:46 40.52281 -73.41253 8490 ft 186 kts 179°
2026-04-30 01:46 40.50977 -73.41171 8749 ft 188 kts 179°
2026-04-30 01:46 40.49667 -73.41088 9006 ft 189 kts 179°
2026-04-30 01:47 40.48347 -73.41005 9265 ft 190 kts 179°
2026-04-30 01:47 40.47099 -73.41435 9530 ft 188 kts 205°
2026-04-30 01:47 40.45929 -73.42218 9796 ft 189 kts 205°
2026-04-30 01:47 40.44746 -73.42943 10041 ft 190 kts 204°
2026-04-30 01:48 40.43531 -73.43641 10279 ft 191 kts 203°
2026-04-30 01:48 40.42282 -73.44201 10520 ft 190 kts 184°
2026-04-30 01:48 40.41020 -73.43681 10775 ft 194 kts 157°
2026-04-30 01:48 40.39813 -73.42874 11041 ft 195 kts 159°
2026-04-30 01:49 40.38574 -73.42149 11320 ft 195 kts 162°
2026-04-30 01:49 40.37317 -73.41470 11594 ft 196 kts 162°
2026-04-30 01:49 40.36044 -73.40780 11868 ft 197 kts 162°
2026-04-30 01:49 40.34774 -73.40083 12149 ft 198 kts 162°
2026-04-30 01:50 40.33498 -73.39383 12430 ft 199 kts 163°
2026-04-30 01:50 40.32234 -73.38690 12707 ft 200 kts 163°
2026-04-30 01:50 40.30951 -73.37987 12994 ft 200 kts 163°
2026-04-30 01:50 40.29661 -73.37281 13281 ft 201 kts 164°
2026-04-30 01:51 40.28372 -73.36575 13574 ft 201 kts 164°
2026-04-30 01:51 40.27067 -73.35862 13857 ft 203 kts 164°
2026-04-30 01:51 40.25769 -73.35152 14107 ft 206 kts 164°
2026-04-30 01:51 40.24441 -73.34426 14370 ft 208 kts 164°
2026-04-30 01:52 40.23102 -73.33694 14626 ft 209 kts 164°
2026-04-30 01:52 40.21754 -73.32958 14892 ft 210 kts 164°
2026-04-30 01:52 40.20401 -73.32219 15154 ft 212 kts 164°
2026-04-30 01:52 40.19036 -73.31474 15421 ft 213 kts 164°
2026-04-30 01:53 40.17672 -73.30730 15693 ft 213 kts 164°
2026-04-30 01:53 40.16297 -73.29981 15960 ft 214 kts 163°
2026-04-30 01:53 40.14918 -73.29229 16231 ft 215 kts 163°
2026-04-30 01:53 40.13535 -73.28475 16510 ft 216 kts 164°
2026-04-30 01:54 40.12147 -73.27720 16797 ft 216 kts 163°
2026-04-30 01:54 40.10757 -73.26989 17067 ft 214 kts 169°
2026-04-30 01:54 40.09326 -73.26885 17355 ft 204 kts 195°
2026-04-30 01:54 40.08051 -73.27593 17650 ft 198 kts 219°
2026-04-30 01:55 40.07002 -73.28744 17949 ft 197 kts 223°
2026-04-30 01:55 40.05960 -73.29923 18238 ft 198 kts 223°
2026-04-30 01:55 40.04913 -73.31101 18494 ft 199 kts 223°
2026-04-30 01:55 40.03861 -73.32282 18747 ft 200 kts 223°
2026-04-30 01:56 40.02804 -73.33467 19006 ft 200 kts 224°
2026-04-30 01:56 40.01749 -73.34651 19265 ft 200 kts 224°
2026-04-30 01:56 40.00704 -73.35823 19522 ft 200 kts 224°
2026-04-30 01:56 39.99645 -73.37010 19785 ft 201 kts 224°
2026-04-30 01:57 39.98586 -73.38197 20051 ft 201 kts 224°
2026-04-30 01:57 39.97527 -73.39382 20320 ft 201 kts 224°
2026-04-30 01:57 39.96467 -73.40569 20598 ft 200 kts 224°
2026-04-30 01:57 39.95410 -73.41752 20863 ft 200 kts 224°
2026-04-30 01:58 39.94354 -73.42933 21139 ft 200 kts 224°
2026-04-30 01:58 39.93297 -73.44114 21418 ft 200 kts 225°
2026-04-30 01:58 39.92243 -73.45292 21697 ft 199 kts 225°
2026-04-30 01:58 39.91194 -73.46465 21946 ft 201 kts 225°
2026-04-30 01:59 39.88971 -73.48951 21952 ft 218 kts 224°
2026-04-30 01:59 39.87806 -73.50250 21954 ft 223 kts 224°
2026-04-30 01:59 39.86612 -73.51581 21961 ft 227 kts 224°
2026-04-30 02:00 39.85415 -73.52914 21962 ft 230 kts 224°
2026-04-30 02:00 39.84194 -73.54274 21960 ft 232 kts 224°
2026-04-30 02:00 39.82965 -73.55642 21958 ft 233 kts 224°
2026-04-30 02:00 39.81730 -73.57016 21958 ft 233 kts 224°
2026-04-30 02:01 39.80492 -73.58394 21961 ft 234 kts 224°
2026-04-30 02:01 39.79254 -73.59771 21958 ft 234 kts 224°
2026-04-30 02:01 39.78032 -73.61129 21959 ft 234 kts 224°
2026-04-30 02:01 39.76794 -73.62504 21964 ft 234 kts 224°
2026-04-30 02:02 39.75558 -73.63876 21961 ft 234 kts 225°
2026-04-30 02:02 39.74321 -73.65249 21961 ft 233 kts 225°
2026-04-30 02:02 39.73087 -73.66617 21957 ft 233 kts 225°
2026-04-30 02:02 39.72255 -73.67539 21953 ft 232 kts 225°
2026-04-30 02:03 39.71027 -73.68899 21951 ft 232 kts 225°
2026-04-30 02:03 39.69800 -73.70259 21951 ft 232 kts 225°
2026-04-30 02:03 39.68585 -73.71604 21950 ft 231 kts 225°
2026-04-30 02:03 39.67361 -73.72958 21958 ft 231 kts 225°
2026-04-30 02:04 39.66137 -73.74312 21956 ft 231 kts 225°
2026-04-30 02:04 39.64914 -73.75664 21957 ft 230 kts 225°
2026-04-30 02:04 39.63694 -73.77012 21956 ft 230 kts 225°
2026-04-30 02:04 39.62474 -73.78360 21956 ft 230 kts 225°
2026-04-30 02:05 39.61257 -73.79703 21956 ft 230 kts 225°
2026-04-30 02:05 39.60041 -73.81046 21954 ft 229 kts 225°
2026-04-30 02:05 39.58823 -73.82389 21953 ft 229 kts 225°
2026-04-30 02:05 39.57607 -73.83729 21956 ft 229 kts 225°
2026-04-30 02:06 39.56395 -73.85065 21954 ft 229 kts 225°
2026-04-30 02:06 39.55176 -73.86407 21952 ft 229 kts 225°
2026-04-30 02:06 39.53960 -73.87746 21953 ft 230 kts 225°
2026-04-30 02:06 39.52738 -73.89090 21951 ft 230 kts 225°
2026-04-30 02:07 39.51519 -73.90431 21949 ft 231 kts 225°
2026-04-30 02:07 39.50293 -73.91778 21951 ft 231 kts 225°
2026-04-30 02:07 39.49061 -73.93132 21951 ft 232 kts 225°
2026-04-30 02:07 39.47827 -73.94487 21955 ft 233 kts 225°
2026-04-30 02:08 39.46590 -73.95846 21955 ft 233 kts 225°
2026-04-30 02:08 39.45351 -73.97204 21954 ft 234 kts 225°
2026-04-30 02:08 39.44113 -73.98562 21953 ft 234 kts 225°
2026-04-30 02:08 39.42869 -73.99925 21951 ft 234 kts 225°
2026-04-30 02:09 39.41638 -74.01274 21951 ft 234 kts 225°
2026-04-30 02:09 39.40397 -74.02639 21949 ft 234 kts 225°
2026-04-30 02:09 39.39161 -74.04020 21949 ft 236 kts 225°
2026-04-30 02:09 39.37911 -74.05417 21951 ft 239 kts 225°
2026-04-30 02:10 39.36648 -74.06821 21953 ft 241 kts 225°
2026-04-30 02:10 39.35374 -74.08236 21955 ft 242 kts 225°
2026-04-30 02:10 39.34092 -74.09659 21950 ft 243 kts 225°
2026-04-30 02:10 39.32807 -74.11086 21950 ft 244 kts 225°
2026-04-30 02:11 39.31519 -74.12516 21949 ft 244 kts 225°
2026-04-30 02:11 39.30230 -74.13945 21945 ft 244 kts 225°
2026-04-30 02:11 39.28951 -74.15363 21944 ft 245 kts 225°
2026-04-30 02:11 39.27658 -74.16796 21942 ft 245 kts 225°
2026-04-30 02:12 39.26362 -74.18231 21942 ft 245 kts 225°
2026-04-30 02:12 39.25068 -74.19663 21939 ft 245 kts 225°
2026-04-30 02:12 39.23770 -74.21100 21934 ft 246 kts 225°
2026-04-30 02:12 39.22473 -74.22535 21936 ft 246 kts 225°
2026-04-30 02:13 39.21175 -74.23969 21932 ft 246 kts 225°
2026-04-30 02:13 39.19877 -74.25403 21931 ft 246 kts 225°
2026-04-30 02:13 39.18579 -74.26836 21927 ft 246 kts 225°
2026-04-30 02:13 39.17277 -74.28273 21928 ft 246 kts 225°
2026-04-30 02:14 39.15983 -74.29700 21927 ft 244 kts 225°
2026-04-30 02:14 39.14693 -74.31123 21924 ft 244 kts 225°
2026-04-30 02:14 39.13404 -74.32543 21926 ft 243 kts 225°
2026-04-30 02:14 39.12122 -74.33955 21931 ft 243 kts 225°
2026-04-30 02:15 39.10839 -74.35367 21931 ft 242 kts 225°
2026-04-30 02:15 39.09573 -74.36760 21929 ft 242 kts 225°
2026-04-30 02:15 39.08291 -74.38170 21926 ft 242 kts 225°
2026-04-30 02:15 39.07012 -74.39576 21928 ft 242 kts 225°
2026-04-30 02:16 39.05729 -74.40985 21929 ft 242 kts 225°
2026-04-30 02:16 39.04449 -74.42392 21926 ft 242 kts 225°
2026-04-30 02:16 39.03163 -74.43803 21928 ft 242 kts 225°
2026-04-30 02:16 39.01882 -74.45209 21925 ft 242 kts 225°
2026-04-30 02:17 39.00621 -74.46591 21922 ft 242 kts 225°
2026-04-30 02:17 38.99332 -74.48004 21922 ft 242 kts 225°
2026-04-30 02:17 38.98048 -74.49410 21922 ft 242 kts 225°
2026-04-30 02:17 38.96764 -74.50816 21919 ft 242 kts 225°
2026-04-30 02:18 38.95479 -74.52223 21917 ft 243 kts 225°
2026-04-30 02:18 38.94193 -74.53629 21916 ft 243 kts 225°
2026-04-30 02:18 38.92906 -74.55037 21915 ft 243 kts 225°
2026-04-30 02:18 38.91615 -74.56447 21914 ft 243 kts 225°
2026-04-30 02:19 38.90344 -74.57835 21910 ft 243 kts 225°
2026-04-30 02:19 38.89040 -74.59259 21914 ft 243 kts 225°
2026-04-30 02:19 38.87771 -74.60644 21912 ft 243 kts 225°
2026-04-30 02:19 38.86477 -74.62054 21910 ft 243 kts 225°
2026-04-30 02:20 38.85185 -74.63462 21910 ft 243 kts 225°
2026-04-30 02:20 38.83896 -74.64868 21905 ft 243 kts 226°
2026-04-30 02:20 38.82606 -74.66272 21906 ft 243 kts 226°
2026-04-30 02:20 38.81320 -74.67672 21906 ft 243 kts 226°
2026-04-30 02:21 38.80031 -74.69074 21903 ft 243 kts 226°
2026-04-30 02:21 38.78741 -74.70477 21907 ft 243 kts 226°
2026-04-30 02:21 38.77456 -74.71874 21905 ft 243 kts 226°
2026-04-30 02:21 38.76167 -74.73273 21905 ft 243 kts 226°
2026-04-30 02:22 38.74880 -74.74671 21906 ft 243 kts 226°
2026-04-30 02:22 38.73608 -74.76051 21906 ft 242 kts 226°
2026-04-30 02:22 38.72323 -74.77445 21903 ft 242 kts 226°
2026-04-30 02:22 38.71032 -74.78845 21905 ft 242 kts 226°
2026-04-30 02:23 38.69749 -74.80235 21904 ft 242 kts 226°
2026-04-30 02:23 38.68461 -74.81631 21900 ft 242 kts 226°
2026-04-30 02:23 38.67177 -74.83020 21906 ft 242 kts 226°
2026-04-30 02:23 38.65891 -74.84412 21901 ft 242 kts 226°
2026-04-30 02:24 38.64604 -74.85804 21898 ft 242 kts 226°
2026-04-30 02:24 38.63321 -74.87191 21896 ft 241 kts 226°
2026-04-30 02:24 38.62037 -74.88578 21896 ft 241 kts 226°
2026-04-30 02:24 38.60769 -74.89948 21904 ft 241 kts 226°
2026-04-30 02:25 38.59486 -74.91333 21901 ft 241 kts 226°
2026-04-30 02:25 38.58204 -74.92716 21901 ft 241 kts 226°
2026-04-30 02:25 38.56915 -74.94105 21903 ft 241 kts 226°
2026-04-30 02:25 38.55635 -74.95486 21908 ft 241 kts 226°
2026-04-30 02:26 38.54352 -74.96867 21901 ft 241 kts 226°
2026-04-30 02:26 38.53066 -74.98252 21909 ft 241 kts 226°
2026-04-30 02:26 38.51784 -74.99633 21903 ft 241 kts 226°
2026-04-30 02:26 38.50518 -75.00995 21907 ft 241 kts 226°
2026-04-30 02:27 38.49237 -75.02371 21906 ft 241 kts 226°
2026-04-30 02:27 38.47952 -75.03752 21906 ft 241 kts 227°
2026-04-30 02:27 38.46664 -75.05118 21908 ft 241 kts 224°
2026-04-30 02:27 38.45307 -75.06372 21918 ft 241 kts 224°
2026-04-30 02:28 38.43972 -75.07670 21911 ft 241 kts 224°
2026-04-30 02:28 38.42637 -75.08962 21912 ft 241 kts 224°
2026-04-30 02:28 38.41287 -75.10244 21916 ft 242 kts 224°
2026-04-30 02:28 38.39938 -75.11521 21919 ft 242 kts 224°
2026-04-30 02:29 38.38589 -75.12803 21917 ft 242 kts 224°
2026-04-30 02:29 38.37247 -75.14080 21915 ft 242 kts 224°
2026-04-30 02:29 38.35891 -75.15368 21915 ft 242 kts 224°
2026-04-30 02:29 38.34542 -75.16648 21916 ft 242 kts 224°
2026-04-30 02:30 38.33191 -75.17930 21914 ft 242 kts 224°
2026-04-30 02:30 38.31857 -75.19194 21914 ft 242 kts 224°
2026-04-30 02:30 38.30508 -75.20474 21916 ft 242 kts 224°
2026-04-30 02:30 38.29153 -75.21757 21917 ft 242 kts 224°
2026-04-30 02:31 38.27799 -75.23040 21916 ft 242 kts 224°
2026-04-30 02:31 38.26448 -75.24319 21915 ft 242 kts 224°
2026-04-30 02:31 38.25097 -75.25596 21911 ft 242 kts 224°
2026-04-30 02:31 38.23746 -75.26874 21910 ft 242 kts 224°
2026-04-30 02:32 38.22395 -75.28151 21910 ft 242 kts 224°
2026-04-30 02:32 38.21045 -75.29427 21908 ft 242 kts 224°
2026-04-30 02:32 38.19692 -75.30703 21905 ft 242 kts 224°
2026-04-30 02:32 38.18339 -75.31981 21899 ft 242 kts 224°
2026-04-30 02:33 38.17006 -75.33238 21900 ft 242 kts 224°
2026-04-30 02:33 38.15651 -75.34516 21884 ft 242 kts 225°
2026-04-30 02:33 38.14304 -75.35786 21896 ft 242 kts 225°
2026-04-30 02:33 38.12951 -75.37060 21895 ft 242 kts 225°
2026-04-30 02:34 38.11599 -75.38333 21897 ft 242 kts 225°
2026-04-30 02:34 38.10247 -75.39605 21900 ft 242 kts 225°
2026-04-30 02:34 38.08894 -75.40878 21900 ft 242 kts 225°
2026-04-30 02:34 38.07539 -75.42152 21901 ft 242 kts 225°
2026-04-30 02:35 38.06205 -75.43406 21903 ft 242 kts 225°
2026-04-30 02:35 38.04832 -75.44645 21907 ft 243 kts 221°
2026-04-30 02:35 38.03438 -75.45834 21907 ft 241 kts 224°
2026-04-30 02:35 38.02070 -75.47074 21909 ft 241 kts 224°
2026-04-30 02:36 38.00692 -75.48294 21909 ft 242 kts 223°
2026-04-30 02:36 37.99295 -75.49505 21906 ft 243 kts 223°
2026-04-30 02:36 37.97903 -75.50714 21907 ft 243 kts 223°
2026-04-30 02:36 37.96511 -75.51928 21910 ft 243 kts 223°
2026-04-30 02:37 37.95119 -75.53143 21906 ft 243 kts 223°
2026-04-30 02:37 37.93728 -75.54354 21906 ft 243 kts 223°
2026-04-30 02:37 37.92333 -75.55569 21907 ft 243 kts 223°
2026-04-30 02:37 37.90939 -75.56781 21907 ft 242 kts 223°
2026-04-30 02:38 37.89564 -75.57977 21903 ft 242 kts 224°
2026-04-30 02:38 37.88176 -75.59184 21901 ft 242 kts 224°
2026-04-30 02:38 37.86785 -75.60393 21899 ft 242 kts 224°
2026-04-30 02:38 37.85394 -75.61601 21898 ft 242 kts 224°
2026-04-30 02:39 37.83993 -75.62792 21895 ft 244 kts 220°
2026-04-30 02:39 37.82523 -75.63868 21891 ft 243 kts 220°
2026-04-30 02:39 37.81077 -75.64983 21880 ft 243 kts 221°
2026-04-30 02:39 37.79624 -75.66096 21880 ft 244 kts 220°
2026-04-30 02:40 37.78162 -75.67194 21882 ft 244 kts 220°
2026-04-30 02:40 37.76701 -75.68289 21885 ft 244 kts 220°
2026-04-30 02:40 37.75244 -75.69386 21889 ft 244 kts 220°
2026-04-30 02:40 37.73799 -75.70474 21888 ft 244 kts 220°
2026-04-30 02:41 37.72337 -75.71573 21887 ft 244 kts 220°
2026-04-30 02:41 37.70883 -75.72667 21888 ft 244 kts 220°
2026-04-30 02:41 37.69418 -75.73767 21887 ft 244 kts 220°
2026-04-30 02:41 37.67948 -75.74870 21889 ft 244 kts 220°
2026-04-30 02:42 37.66487 -75.75967 21887 ft 244 kts 220°
2026-04-30 02:42 37.65022 -75.77066 21889 ft 244 kts 220°
2026-04-30 02:42 37.63562 -75.78161 21890 ft 244 kts 220°
2026-04-30 02:42 37.62125 -75.79238 21888 ft 244 kts 220°
2026-04-30 02:43 37.60659 -75.80336 21888 ft 244 kts 220°
2026-04-30 02:43 37.59196 -75.81432 21886 ft 244 kts 220°
2026-04-30 02:43 37.57736 -75.82524 21889 ft 244 kts 220°
2026-04-30 02:43 37.56278 -75.83616 21887 ft 244 kts 220°
2026-04-30 02:44 37.54821 -75.84705 21885 ft 244 kts 220°
2026-04-30 02:44 37.53377 -75.85813 21880 ft 239 kts 225°
2026-04-30 02:44 37.52164 -75.87146 21884 ft 233 kts 232°
2026-04-30 02:44 37.50974 -75.88569 21882 ft 233 kts 232°
2026-04-30 02:45 37.49786 -75.89971 21879 ft 234 kts 231°
2026-04-30 02:45 37.48603 -75.91345 21877 ft 235 kts 231°
2026-04-30 02:45 37.47402 -75.92739 21871 ft 235 kts 231°
2026-04-30 02:45 37.46201 -75.94138 21871 ft 235 kts 231°
2026-04-30 02:46 37.45000 -75.95537 21870 ft 235 kts 231°
2026-04-30 02:46 37.43798 -75.96936 21866 ft 235 kts 231°
2026-04-30 02:46 37.42597 -75.98332 21866 ft 235 kts 231°
2026-04-30 02:46 37.41395 -75.99729 21866 ft 235 kts 231°
2026-04-30 02:47 37.40195 -76.01124 21862 ft 235 kts 231°
2026-04-30 02:47 37.39395 -76.02052 21862 ft 235 kts 231°
2026-04-30 02:47 37.38192 -76.03449 21859 ft 235 kts 231°
2026-04-30 02:47 37.36994 -76.04840 21858 ft 235 kts 231°
2026-04-30 02:48 37.35401 -76.06688 21857 ft 235 kts 231°
2026-04-30 02:48 37.34205 -76.08074 21859 ft 235 kts 231°
2026-04-30 02:48 37.33404 -76.09002 21853 ft 235 kts 231°
2026-04-30 02:48 37.32187 -76.10412 21857 ft 235 kts 231°
2026-04-30 02:49 37.30987 -76.11801 21858 ft 235 kts 231°
2026-04-30 02:49 37.29785 -76.13192 21861 ft 235 kts 231°
2026-04-30 02:49 37.28582 -76.14584 21856 ft 235 kts 231°
2026-04-30 02:49 37.27395 -76.15956 21856 ft 235 kts 231°
2026-04-30 02:50 37.26191 -76.17348 21856 ft 235 kts 231°
2026-04-30 02:50 37.24988 -76.18737 21856 ft 235 kts 231°
2026-04-30 02:50 37.23784 -76.20127 21856 ft 235 kts 231°
2026-04-30 02:50 37.22577 -76.21521 21854 ft 235 kts 231°
2026-04-30 02:51 37.21374 -76.22909 21855 ft 235 kts 231°
2026-04-30 02:51 37.20184 -76.24280 21853 ft 235 kts 231°
2026-04-30 02:51 37.18960 -76.25691 21853 ft 235 kts 231°
2026-04-30 02:51 37.17771 -76.27061 21854 ft 235 kts 231°
2026-04-30 02:52 37.16562 -76.28454 21854 ft 235 kts 231°
2026-04-30 02:52 37.15358 -76.29839 21849 ft 235 kts 231°
2026-04-30 02:52 37.14143 -76.31236 21850 ft 236 kts 231°
2026-04-30 02:52 37.12936 -76.32625 21848 ft 236 kts 231°
2026-04-30 02:53 37.11727 -76.34014 21852 ft 236 kts 231°
2026-04-30 02:53 37.10519 -76.35402 21852 ft 236 kts 231°
2026-04-30 02:53 37.09310 -76.36790 21852 ft 236 kts 231°
2026-04-30 02:53 37.08099 -76.38181 21854 ft 236 kts 231°
2026-04-30 02:54 37.06890 -76.39568 21849 ft 236 kts 231°
2026-04-30 02:54 37.05680 -76.40956 21849 ft 236 kts 230°
2026-04-30 02:54 37.04470 -76.42343 21852 ft 236 kts 230°
2026-04-30 02:54 37.03257 -76.43732 21851 ft 236 kts 230°
2026-04-30 02:55 37.02045 -76.45121 21852 ft 236 kts 230°
2026-04-30 02:55 37.00831 -76.46510 21856 ft 236 kts 230°
2026-04-30 02:55 36.99618 -76.47899 21854 ft 237 kts 230°
2026-04-30 02:55 36.98419 -76.49270 21856 ft 237 kts 230°
2026-04-30 02:56 36.97201 -76.50662 21857 ft 237 kts 230°
2026-04-30 02:56 36.95987 -76.52049 21858 ft 237 kts 230°
2026-04-30 02:56 36.94769 -76.53441 21871 ft 237 kts 230°
2026-04-30 02:56 36.93553 -76.54829 21865 ft 237 kts 230°
2026-04-30 02:57 36.92335 -76.56219 21867 ft 237 kts 230°
2026-04-30 02:57 36.91118 -76.57607 21871 ft 237 kts 230°
2026-04-30 02:57 36.89895 -76.59001 21869 ft 237 kts 230°
2026-04-30 02:57 36.88676 -76.60391 21877 ft 237 kts 230°
2026-04-30 02:58 36.87455 -76.61781 21871 ft 238 kts 230°
2026-04-30 02:58 36.86234 -76.63172 21866 ft 238 kts 230°
2026-04-30 02:58 36.85011 -76.64563 21867 ft 238 kts 230°
2026-04-30 02:58 36.83789 -76.65953 21873 ft 238 kts 230°
2026-04-30 02:59 36.82579 -76.67329 21875 ft 238 kts 230°
2026-04-30 02:59 36.81354 -76.68721 21873 ft 238 kts 230°
2026-04-30 02:59 36.80126 -76.70116 21871 ft 238 kts 230°
2026-04-30 02:59 36.78900 -76.71508 21874 ft 238 kts 230°
2026-04-30 03:00 36.77673 -76.72901 21872 ft 238 kts 230°
2026-04-30 03:00 36.76447 -76.74292 21868 ft 238 kts 230°
2026-04-30 03:00 36.75217 -76.75686 21852 ft 238 kts 230°
2026-04-30 03:00 36.73989 -76.77078 21854 ft 238 kts 230°
2026-04-30 03:01 36.72760 -76.78471 21849 ft 238 kts 230°
2026-04-30 03:01 36.71547 -76.79844 21852 ft 238 kts 230°
2026-04-30 03:01 36.70325 -76.81228 21851 ft 238 kts 230°
2026-04-30 03:01 36.69091 -76.82623 21853 ft 238 kts 230°
2026-04-30 03:02 36.67864 -76.84011 21853 ft 238 kts 230°
2026-04-30 03:02 36.66635 -76.85400 21851 ft 238 kts 230°
2026-04-30 03:02 36.65407 -76.86788 21849 ft 238 kts 230°
2026-04-30 03:02 36.64176 -76.88178 21851 ft 238 kts 230°
2026-04-30 03:03 36.62949 -76.89563 21851 ft 238 kts 230°
2026-04-30 03:03 36.60496 -76.92331 21848 ft 238 kts 230°
2026-04-30 03:03 36.59270 -76.93713 21857 ft 238 kts 230°
2026-04-30 03:04 36.58038 -76.95101 21857 ft 238 kts 230°
2026-04-30 03:04 36.56813 -76.96481 21858 ft 238 kts 230°
2026-04-30 03:04 36.55583 -76.97866 21857 ft 238 kts 230°
2026-04-30 03:04 36.54353 -76.99250 21859 ft 238 kts 230°
2026-04-30 03:05 36.53123 -77.00634 21855 ft 238 kts 229°
2026-04-30 03:05 36.51908 -77.01999 21860 ft 238 kts 230°
2026-04-30 03:05 36.50678 -77.03381 21859 ft 238 kts 229°
2026-04-30 03:05 36.49448 -77.04764 21859 ft 239 kts 229°
2026-04-30 03:06 36.48216 -77.06147 21859 ft 239 kts 229°
2026-04-30 03:06 36.46984 -77.07530 21861 ft 239 kts 229°
2026-04-30 03:06 36.45750 -77.08913 21856 ft 239 kts 229°
2026-04-30 03:06 36.44518 -77.10295 21855 ft 239 kts 229°
2026-04-30 03:07 36.43285 -77.11677 21851 ft 239 kts 229°
2026-04-30 03:07 36.42050 -77.13060 21856 ft 239 kts 229°
2026-04-30 03:07 36.40823 -77.14434 21854 ft 239 kts 229°
2026-04-30 03:07 36.39584 -77.15821 21850 ft 239 kts 229°
2026-04-30 03:08 36.38347 -77.17205 21852 ft 239 kts 229°
2026-04-30 03:08 36.37114 -77.18584 21850 ft 239 kts 229°
2026-04-30 03:08 36.35878 -77.19966 21848 ft 239 kts 229°
2026-04-30 03:08 36.34641 -77.21348 21852 ft 239 kts 229°
2026-04-30 03:09 36.33407 -77.22725 21852 ft 239 kts 229°
2026-04-30 03:09 36.32174 -77.24102 21850 ft 239 kts 229°
2026-04-30 03:09 36.31002 -77.25533 21851 ft 233 kts 236°
2026-04-30 03:09 36.29987 -77.27067 21854 ft 233 kts 237°
2026-04-30 03:10 36.28960 -77.28617 21851 ft 233 kts 237°
2026-04-30 03:10 36.27919 -77.30175 21850 ft 234 kts 236°
2026-04-30 03:10 36.26881 -77.31728 21851 ft 234 kts 236°
2026-04-30 03:10 36.25841 -77.33285 21852 ft 234 kts 236°
2026-04-30 03:11 36.24802 -77.34840 21854 ft 234 kts 236°
2026-04-30 03:11 36.23764 -77.36393 21856 ft 234 kts 236°
2026-04-30 03:11 36.22724 -77.37948 21854 ft 234 kts 236°
2026-04-30 03:11 36.21683 -77.39504 21859 ft 234 kts 236°
2026-04-30 03:12 36.20654 -77.41041 21857 ft 234 kts 236°
2026-04-30 03:12 36.19613 -77.42595 21855 ft 234 kts 236°
2026-04-30 03:12 36.18574 -77.44146 21858 ft 234 kts 236°
2026-04-30 03:12 36.17531 -77.45701 21856 ft 234 kts 236°
2026-04-30 03:13 36.16492 -77.47252 21859 ft 234 kts 236°
2026-04-30 03:13 36.15450 -77.48804 21860 ft 234 kts 236°
2026-04-30 03:13 36.14409 -77.50355 21862 ft 234 kts 236°
2026-04-30 03:13 36.13366 -77.51909 21866 ft 234 kts 236°
2026-04-30 03:14 36.12325 -77.53458 21861 ft 234 kts 236°
2026-04-30 03:14 36.11294 -77.54991 21862 ft 234 kts 236°
2026-04-30 03:14 36.10249 -77.56545 21862 ft 234 kts 236°
2026-04-30 03:14 36.09207 -77.58093 21860 ft 234 kts 236°
2026-04-30 03:15 36.08165 -77.59642 21860 ft 234 kts 236°
2026-04-30 03:15 36.07122 -77.61190 21862 ft 234 kts 236°
2026-04-30 03:15 36.06079 -77.62739 21860 ft 234 kts 236°
2026-04-30 03:15 36.05038 -77.64284 21859 ft 234 kts 236°
2026-04-30 03:16 36.04009 -77.65809 21862 ft 234 kts 236°
2026-04-30 03:16 36.02966 -77.67355 21860 ft 234 kts 236°
2026-04-30 03:16 36.01923 -77.68901 21863 ft 234 kts 236°
2026-04-30 03:16 36.00878 -77.70448 21861 ft 234 kts 236°
2026-04-30 03:17 35.99835 -77.71992 21861 ft 234 kts 236°
2026-04-30 03:17 35.98796 -77.73529 21860 ft 234 kts 236°
2026-04-30 03:17 35.97747 -77.75081 21851 ft 234 kts 236°
2026-04-30 03:17 35.96703 -77.76625 21853 ft 234 kts 236°
2026-04-30 03:18 35.95652 -77.78177 21852 ft 234 kts 236°
2026-04-30 03:18 35.94608 -77.79719 21853 ft 234 kts 236°
2026-04-30 03:18 35.93579 -77.81238 21856 ft 234 kts 236°
2026-04-30 03:18 35.92517 -77.82804 21845 ft 235 kts 236°
2026-04-30 03:19 35.91480 -77.84334 21853 ft 234 kts 236°
2026-04-30 03:19 35.90431 -77.85880 21850 ft 234 kts 236°
2026-04-30 03:19 35.89385 -77.87422 21848 ft 234 kts 236°
2026-04-30 03:19 35.88339 -77.88963 21854 ft 234 kts 236°
2026-04-30 03:20 35.87292 -77.90503 21856 ft 234 kts 236°
2026-04-30 03:20 35.86247 -77.92042 21855 ft 234 kts 236°
2026-04-30 03:20 35.85199 -77.93584 21854 ft 234 kts 236°
2026-04-30 03:20 35.84164 -77.95106 21855 ft 235 kts 236°
2026-04-30 03:21 35.83102 -77.96665 21853 ft 235 kts 236°
2026-04-30 03:21 35.82067 -77.98186 21852 ft 234 kts 236°
2026-04-30 03:21 35.81005 -77.99745 21858 ft 235 kts 236°
2026-04-30 03:21 35.79969 -78.01266 21858 ft 235 kts 236°
2026-04-30 03:22 35.78918 -78.02807 21852 ft 235 kts 236°
2026-04-30 03:22 35.77868 -78.04346 21845 ft 235 kts 236°
2026-04-30 03:22 35.76816 -78.05888 21860 ft 235 kts 236°
2026-04-30 03:22 35.75767 -78.07425 21861 ft 235 kts 236°
2026-04-30 03:23 35.74717 -78.08962 21860 ft 235 kts 236°
2026-04-30 03:23 35.73665 -78.10502 21860 ft 235 kts 236°
2026-04-30 03:23 35.72615 -78.12039 21862 ft 235 kts 236°
2026-04-30 03:23 35.71560 -78.13581 21854 ft 235 kts 236°
2026-04-30 03:24 35.70506 -78.15122 21851 ft 235 kts 236°
2026-04-30 03:24 35.69466 -78.16641 21850 ft 235 kts 236°
2026-04-30 03:24 35.68397 -78.18202 21855 ft 235 kts 236°
2026-04-30 03:24 35.67359 -78.19718 21852 ft 235 kts 236°
2026-04-30 03:25 35.66303 -78.21258 21853 ft 235 kts 236°
2026-04-30 03:25 35.65246 -78.22800 21848 ft 235 kts 236°
2026-04-30 03:25 35.64190 -78.24339 21850 ft 235 kts 236°
2026-04-30 03:25 35.63134 -78.25878 21843 ft 235 kts 236°
2026-04-30 03:26 35.62076 -78.27418 21852 ft 235 kts 236°
2026-04-30 03:26 35.61018 -78.28959 21849 ft 235 kts 236°
2026-04-30 03:26 35.59960 -78.30498 21846 ft 235 kts 236°
2026-04-30 03:26 35.58905 -78.32033 21842 ft 235 kts 236°
2026-04-30 03:27 35.57848 -78.33569 21841 ft 235 kts 236°
2026-04-30 03:27 35.56790 -78.35106 21846 ft 235 kts 236°
2026-04-30 03:27 35.55732 -78.36643 21840 ft 236 kts 237°
2026-04-30 03:27 35.54671 -78.38183 21848 ft 235 kts 237°
2026-04-30 03:28 35.53625 -78.39702 21848 ft 236 kts 237°
2026-04-30 03:28 35.52568 -78.41235 21844 ft 236 kts 237°
2026-04-30 03:28 35.51506 -78.42774 21845 ft 236 kts 237°
2026-04-30 03:28 35.50450 -78.44305 21845 ft 236 kts 237°
2026-04-30 03:29 35.49385 -78.45848 21842 ft 236 kts 237°
2026-04-30 03:29 35.48324 -78.47383 21843 ft 236 kts 237°
2026-04-30 03:29 35.47263 -78.48920 21841 ft 236 kts 237°
2026-04-30 03:29 35.46202 -78.50454 21842 ft 236 kts 237°
2026-04-30 03:30 35.45141 -78.51988 21840 ft 236 kts 237°
2026-04-30 03:30 35.44082 -78.53519 21850 ft 236 kts 237°
2026-04-30 03:30 35.43019 -78.55054 21867 ft 236 kts 237°
2026-04-30 03:30 35.41971 -78.56567 21869 ft 236 kts 237°
2026-04-30 03:31 35.40907 -78.58103 21866 ft 236 kts 237°
2026-04-30 03:31 35.39846 -78.59634 21868 ft 236 kts 237°
2026-04-30 03:31 35.38783 -78.61168 21869 ft 236 kts 237°
2026-04-30 03:31 35.37717 -78.62704 21872 ft 236 kts 237°